Tracking 19563 objects as of 20-Mar-2019
HD Live streaming from Space Station
objects crossing your sky now

WESTFORD NEEDLES

Track WESTFORD NEEDLES now!
10-day predictions
WESTFORD NEEDLES is classified as:


NORAD ID: 20023
Int'l Code: 1963-014EZ
Perigee: 488.7 km
Apogee: 6,277.7 km
Inclination: 84.1 °
Period: 159.8 minutes
Semi major axis: 9754 km
RCS: 0.014 m2 (small)
Launch date: May 9, 1963
Source: United States (US)
Launch site: AIR FORCE WESTERN TEST RANGE (AFWTR)
aabbcc
Your satellite tracking list
Your tracking list is empty




NASA's NSSDC Master Catalog

Two Line Element Set (TLE):
1 20023U 63014EZ  19078.62616400 +.00017167 +00000-0 +95404-2 0  9997
2 20023 084.0995 318.2741 2967435 097.8164 296.5021 09.01183472241592
Source of the keplerian elements: AFSPC